Location: Miramichi City (Newcastle)
(46.9830°N, 65.5670°W)
Time: 21:56:38
(UTC-03:00)

Iridium 12 - Visible Passes

Search period start: 24 April 2017 00:00
Search period end: 04 May 2017 00:00
Orbit: 776 x 779 km, 86.4° (Epoch: 23 April)

Date Brightness Start Highest point End Pass type
(mag) Time Alt. Az. Time Alt. Az. Time Alt. Az.
24 Apr 7.9 01:29:23 10° NW 01:31:14 12° WNW 01:31:53 12° W visible
24 Apr 5.6 23:12:40 10° N 23:17:48 55° E 23:18:08 54° E visible
25 Apr 7.4 00:54:18 10° NNW 00:58:05 21° WNW 00:58:37 20° W visible
25 Apr 6.4 22:39:25 10° NNE 22:44:06 32° ENE 22:44:53 31° E visible
26 Apr 6.6 00:20:07 10° NNW 00:24:49 35° W 00:25:22 34° W visible
26 Apr 7.1 22:06:32 10° NNE 22:10:15 19° ENE 22:11:38 17° E visible
26 Apr 5.7 23:46:17 10° N 23:51:26 61° W 23:52:07 56° SW visible
27 Apr 7.6 21:34:46 10° NE 21:36:15 11° ENE 21:37:44 10° E visible
27 Apr 5.4 23:12:40 10° N 23:17:55 78° E 23:18:52 59° SSE visible
28 Apr 7.7 00:55:05 10° NW 00:57:56 15° WNW 00:59:22 14° W visible
28 Apr 6.0 22:39:17 10° N 22:44:18 44° E 22:45:39 36° ESE visible
29 Apr 7.1 00:20:31 10° NNW 00:24:45 25° W 00:26:08 23° WSW visible
29 Apr 6.7 22:06:09 10° NNE 22:10:31 26° ENE 22:12:25 21° ESE visible
29 Apr 6.4 23:46:30 10° NNW 23:51:26 43° W 23:52:55 35° SW visible
30 Apr 7.3 21:33:31 10° NNE 21:36:37 16° ENE 21:39:13 11° ESE visible
30 Apr 5.6 23:12:45 10° N 23:17:59 77° W 23:19:41 43° SSW visible
01 May 8.1 00:56:51 10° WNW 00:57:44 10° WNW 00:58:37 10° W visible
01 May 5.6 22:39:14 10° N 22:44:26 62° E 22:46:30 35° SSE visible
02 May 7.7 00:21:06 10° NW 00:24:37 19° WNW 00:26:59 14° WSW visible
02 May 6.3 22:05:56 10° NNE 22:10:44 36° ENE 22:13:18 23° SE visible
02 May 7.0 23:46:48 10° NNW 23:51:22 31° W 23:53:48 21° SW visible
03 May 6.9 21:32:57 10° NNE 21:36:55 21° ENE 21:40:07 13° ESE visible
03 May 6.1 23:12:54 10° NNW 23:18:01 54° W 23:20:37 27° SSW visible
